Miscellaneous Local Product
Issued by NWS North Platte, NE

Home | Current Version | Previous Version | Text Only | Print | Product List | Glossary On
Versions: 1 2 3 4 5 6 7 8 9 10 11 12 13 14 15 16 17 18 19 20 21 22 23 24 25 26 27 28 29 30 31 32 33 34 35 36 37 38 39 40 41 42 43 44 45 46 47 48 49 50
000
AXUS43 KLBF 231010
MISLBF


WESTERN AND NORTH CENTRAL NEBRASKA HOURLY WEATHER ROUNDUP
NATIONAL WEATHER SERVICE NORTH PLATTE NE
500 AM CDT TUE SEP 23 2014

***STATIONS NOT REPORTING VARIABLES SUCH AS SKY/WEATHER OR
PRESSURE ARE PROVIDED BY THE NEBRASKA DEPARTMENT OF
ROADS...RAWS...AND APRS NETWORKS...AND ARE NOT UNDER
NATIONAL WEATHER SERVICE QUALITY CONTROL***

...OBSERVATIONS IN AND NEAR THE EASTERN PANHANDLE OF NEBRASKA...

CITY           SKY/WX    TMP DP  RH WIND       PRES   REMARKS
PINE RIDGE     PTCLDY    55  52  89 SW5       29.92F
CHADRON        PTCLDY    51  49  92 W7        29.92F
ALLIANCE       FOG       45  45 100 W5        29.97F VSB 3/4
SIDNEY         PTCLDY    58  55  90 SW13      30.04F
WHITECLAY        N/A     53  49  87 SE8         N/A
RUSHVILLE        N/A     48  47  95 S10         N/A
CRESCENT LAKE    N/A     54  53  98 CALM        N/A
LISCO            N/A     56  51  85 CALM        N/A
BIG SPRINGS      N/A     58  55  90 CALM        N/A
$$

...OBSERVATIONS IN NORTH CENTRAL NEBRASKA...

CITY           SKY/WX    TMP DP  RH WIND       PRES   REMARKS
VALENTINE      MOCLDY    56  52  86 S10       29.98F
THEDFORD       MOCLDY    55  54  94 SE7       30.02F
AINSWORTH      MOCLDY    55  52  88 S16       30.01S
O`NEILL        LGT RAIN  57  56  96 SE15      30.07F
ORD            RAIN      56  54  93 SE9       30.07F
BROKEN BOW     CLOUDY    57  54  89 SE9       30.06R
SPRINGVIEW       N/A     58  53  84 SE6G13      N/A
ROSE             N/A     58  58  99 E17         N/A
NEWPORT          N/A     58  55  91 S14         N/A
COMSTOCK         N/A     58  58  99 SE6         N/A
CHAMBERS         N/A     56  55  95 S6          N/A
$$

...OBSERVATIONS IN SOUTHWEST NEBRASKA AND FAR NORTHEAST COLORADO...

CITY           SKY/WX    TMP DP  RH WIND       PRES   REMARKS
WRAY           FAIR     N/A N/A N/A S7        30.05F
HOLYOKE        FAIR      61  57  88 SW8       30.03S
IMPERIAL       PTCLDY    57  54  89 S7        30.03F
OGALLALA       PTCLDY    56  55  97 CALM      30.01R
NORTH PLATTE   MOCLDY    57  55  93 SE9       30.02F
MCCOOK         CLOUDY    56  55  97 E7        30.06S
LEXINGTON      CLOUDY    57  56  94 SE12      30.07R
PAXTON           N/A     56  53  90 CALM        N/A
SUTHERLAND       N/A     54  52  92 S6          N/A
BRADY            N/A     57  54  89 CALM        N/A
GOTHENBURG       N/A     58  53  83 SE6         N/A
CALLAWAY         N/A     57  56  96 S12         N/A
$$

...SOME WEATHER OBSERVATIONS FROM AROUND THE REGION...

CITY           SKY/WX    TMP DP  RH WIND       PRES   REMARKS
DENVER         CLOUDY    60  49  66 SW8       30.13R
LARAMIE        CLEAR     46  41  82 W10       30.21S
CHEYENNE       MOCLDY    57  44  62 W15       30.15S
SCOTTSBLUFF    CLEAR     50  49  96 NE5       30.00S
RAPID CITY     CLOUDY    57  55  93 CALM      29.91R
PIERRE         CLOUDY    61  54  77 SE21      29.94F
WINNER         CLOUDY    61  53  75 S17G30    29.97S
SIOUX FALLS    CLOUDY    60  50  69 S8        30.11S
OMAHA          CLOUDY    62  52  69 S12       30.17R
GRAND ISLAND   LGT RAIN  58  54  86 SE10      30.09F
KANSAS CITY    PTCLDY    54  51  90 SE9       30.21S
WICHITA        MOCLDY    58  51  78 S9        30.16F
LIBERAL        PTCLDY    64  52  63 S14       30.12F
GOODLAND       PTCLDY    56  55  97 S10       30.06S
$$



USA.gov is the U.S. government's official web portal to all federal, state and local government web resources and services.